Tracking 19563 objects as of 20-Mar-2019
HD Live streaming from Space Station
objects crossing your sky now

IRIDIUM 128

Track IRIDIUM 128 now!
10-day predictions
IRIDIUM 128 is classified as:


NORAD ID: 42811
Int'l Code: 2017-039J
Perigee: 782.6 km
Apogee: 787.0 km
Inclination: 86.4 °
Period: 100.4 minutes
Semi major axis: 7155 km
RCS: Unknown
Launch date: June 25, 2017
Source: United States (US)
Launch site: AIR FORCE WESTERN TEST RANGE (AFWTR)
aabbcc
Your satellite tracking list
Your tracking list is empty




NASA's NSSDC Master Catalog

Two Line Element Set (TLE):
1 42811U 17039J   19078.47062282 +.00000070 +00000-0 +18097-4 0  9998
2 42811 086.3968 051.1919 0003137 074.4034 285.7508 14.34220927090626
Source of the keplerian elements: AFSPC